Weather History for Olean, NY

Change the Weather History Date:

Thursday, September 6, 2012

  Actual Average (KBFD) Record (KBFD)
Temperature  
Mean Temperature 68 °F 60 °F  
Max Temperature 77 °F 72 °F 85 °F (1998)
Min Temperature 60 °F 48 °F 30 °F (1976)
Degree Days  
Heating Degree Days 0 2  
Month to date heating degree days 12  
Since 1 July heating degree days 165  
Cooling Degree Days 4 1  
Month to date cooling degree days 6  
Year to date cooling degree days 183  
Growing Degree Days 18 (Base 50)    
Moisture  
Dew Point 62 °F    
Average Humidity 82    
Maximum Humidity 100    
Minimum Humidity 61    
Precipitation  
Precipitation 0.00 in 0.12 in 0.83 in (1979)
Month to date precipitation 0.77  
Year to date precipitation 30.72  
Sea Level Pressure  
Sea Level Pressure 29.94 in    
Wind  
Wind Speed 3 mph ()    
Max Wind Speed 8 mph    
Max Gust Speed -    
Visibility 10.0 miles    
Events Rain , Thunderstorm    
T = Trace of Precipitation, MM = Missing Value Source: Averaged Metar Reports

Daily Weather History Graph

Daily Weather History Graph

Search for Another Location

Airport:

Trip Planner

Search our weather history database for the weather conditions in past years. The results will help you decide how hot, cold, wet, or windy it might be!

Date:

Astronomy

Sep. 06, 2012 Rise Set
Actual Time 6:44 AM EDT 7:38 PM EDT
Civil Twilight 6:16 AM EDT 8:06 PM EDT
Nautical Twilight 5:42 AM EDT 8:40 PM EDT
Astronomical Twilight 5:06 AM EDT 9:15 PM EDT
Moon 10:39 PM EDT (9/6) 12:49 PM EDT (9/6)
Length of Visible Light 13h 50m
Length of Day
12h 53m
Waning Gibbous, 67% of the Moon is Illuminated
Sep 6
Waning Gibbous
Sep 8
Last Quarter
Sep 15
New
Sep 22
First Quarter
Sep 29
Full

Hourly Weather History & Observations

Time (EDT) Temp. Dew Point Humidity Pressure Visibility Wind Dir Wind Speed Gust Speed Precip Events Conditions
12:15 AM 64.4 °F 60.8 °F 88% 29.91 in 10.0 mi South 3.5 mph - N/A   Scattered Clouds
12:35 AM 64.4 °F 60.8 °F 88% 29.92 in 10.0 mi SSW 4.6 mph - N/A   Mostly Cloudy
12:55 AM 62.6 °F 60.8 °F 94% 29.92 in 10.0 mi SSW 4.6 mph - N/A   Scattered Clouds
1:15 AM 62.6 °F 60.8 °F 94% 29.92 in 10.0 mi Calm Calm - N/A   Scattered Clouds
1:35 AM 62.6 °F 60.8 °F 94% 29.92 in 10.0 mi SSW 3.5 mph - N/A   Mostly Cloudy
1:55 AM 62.6 °F 60.8 °F 94% 29.91 in 10.0 mi SSW 5.8 mph - N/A   Scattered Clouds
2:15 AM 62.6 °F 60.8 °F 94% 29.91 in 10.0 mi SSW 5.8 mph - N/A   Clear
2:55 AM 62.6 °F 60.8 °F 94% 29.91 in 10.0 mi SSW 5.8 mph - N/A   Clear
3:15 AM 62.6 °F 60.8 °F 94% 29.91 in 10.0 mi South 8.1 mph - N/A   Clear
3:35 AM 62.6 °F 60.8 °F 94% 29.91 in 10.0 mi SSW 4.6 mph - N/A   Clear
3:55 AM 62.6 °F 60.8 °F 94% 29.91 in 10.0 mi SSW 3.5 mph - N/A   Clear
4:35 AM 60.8 °F 60.8 °F 100% 29.91 in 10.0 mi SSW 3.5 mph - N/A   Clear
4:55 AM 60.8 °F 60.8 °F 100% 29.91 in 10.0 mi SSW 3.5 mph - N/A   Clear
5:15 AM 60.8 °F 60.8 °F 100% 29.91 in 10.0 mi SSW 3.5 mph - N/A   Clear
5:35 AM 60.8 °F 60.8 °F 100% 29.91 in 10.0 mi SSW 4.6 mph - N/A   Clear
5:55 AM 60.8 °F 60.8 °F 100% 29.92 in 10.0 mi SSW 8.1 mph - N/A   Clear
6:15 AM 62.6 °F 60.8 °F 94% 29.92 in 10.0 mi SW 4.6 mph - N/A   Scattered Clouds
6:35 AM 62.6 °F 60.8 °F 94% 29.92 in 10.0 mi SW 3.5 mph - N/A   Mostly Cloudy
6:55 AM 62.6 °F 60.8 °F 94% 29.93 in 10.0 mi SSW 8.1 mph - N/A   Scattered Clouds
7:15 AM 62.6 °F 60.8 °F 94% 29.93 in 10.0 mi SSW 6.9 mph - N/A   Clear
7:35 AM 62.6 °F 60.8 °F 94% 29.94 in 10.0 mi SSW 3.5 mph - N/A   Mostly Cloudy
7:55 AM 62.6 °F 60.8 °F 94% 29.94 in 10.0 mi SSW 8.1 mph - N/A   Scattered Clouds
8:15 AM 64.4 °F 60.8 °F 88% 29.94 in 10.0 mi SSW 5.8 mph - N/A   Clear
8:35 AM 64.4 °F 60.8 °F 88% 29.93 in 10.0 mi SSW 5.8 mph - N/A   Clear
8:55 AM 64.4 °F 60.8 °F 88% 29.94 in 10.0 mi SSW 4.6 mph - N/A   Clear
9:15 AM 68.0 °F 62.6 °F 83% 29.94 in 10.0 mi Calm Calm - N/A   Clear
9:35 AM 68.0 °F 62.6 °F 83% 29.95 in 10.0 mi Calm Calm - N/A   Clear
9:55 AM 69.8 °F 64.4 °F 83% 29.95 in 10.0 mi Calm Calm - N/A   Mostly Cloudy
10:15 AM 69.8 °F 64.4 °F 83% 29.96 in 10.0 mi Calm Calm - N/A   Overcast
10:35 AM 71.6 °F 64.4 °F 78% 29.95 in 10.0 mi West 4.6 mph - N/A   Mostly Cloudy
10:55 AM 71.6 °F 64.4 °F 78% 29.95 in 10.0 mi WNW 3.5 mph - N/A   Mostly Cloudy
11:15 AM 71.6 °F 64.4 °F 78% 29.95 in 10.0 mi West 3.5 mph - N/A   Scattered Clouds
11:35 AM 73.4 °F 64.4 °F 73% 29.95 in 10.0 mi West 3.5 mph - N/A   Clear
11:55 AM 73.4 °F 64.4 °F 73% 29.95 in 10.0 mi West 3.5 mph - N/A   Clear
12:15 PM 73.4 °F 64.4 °F 73% 29.95 in 10.0 mi Calm Calm - N/A   Scattered Clouds
12:35 PM 73.4 °F 62.6 °F 69% 29.94 in 10.0 mi Calm Calm - N/A   Scattered Clouds
12:55 PM 75.2 °F 64.4 °F 69% 29.95 in 10.0 mi Calm Calm - N/A   Scattered Clouds
1:15 PM 77.0 °F 62.6 °F 61% 29.95 in 10.0 mi West 4.6 mph - N/A   Mostly Cloudy
1:35 PM 73.4 °F 62.6 °F 69% 29.95 in 10.0 mi West 3.5 mph - N/A   Mostly Cloudy
1:55 PM 75.2 °F 64.4 °F 69% 29.95 in 10.0 mi Calm Calm - N/A   Mostly Cloudy
2:15 PM 75.2 °F 62.6 °F 65% 29.94 in 10.0 mi Calm Calm - N/A   Overcast
2:35 PM 71.6 °F 64.4 °F 78% 29.94 in 10.0 mi Calm Calm - N/A Rain Light Rain
2:55 PM 73.4 °F 64.4 °F 73% 29.94 in 10.0 mi Calm Calm - N/A   Scattered Clouds
3:15 PM 71.6 °F 64.4 °F 78% 29.94 in 10.0 mi Calm Calm - N/A   Scattered Clouds
3:35 PM 73.4 °F 64.4 °F 73% 29.94 in 10.0 mi Calm Calm - N/A   Scattered Clouds
3:55 PM 71.6 °F 64.4 °F 78% 29.93 in 10.0 mi WSW 4.6 mph - N/A Thunderstorm Mostly Cloudy
4:15 PM 71.6 °F 64.4 °F 78% 29.93 in 10.0 mi SW 3.5 mph - N/A   Overcast
4:35 PM 73.4 °F 62.6 °F 69% 29.93 in 10.0 mi SW 3.5 mph - N/A   Scattered Clouds
4:55 PM 75.2 °F 62.6 °F 65% 29.92 in 10.0 mi Calm Calm - N/A Thunderstorm Clear
5:15 PM 75.2 °F 62.6 °F 65% 29.92 in 10.0 mi WNW 3.5 mph - N/A   Clear
5:35 PM 73.4 °F 60.8 °F 65% 29.93 in 10.0 mi Calm Calm - N/A   Clear
5:55 PM 71.6 °F 60.8 °F 69% 29.93 in 10.0 mi NW 4.6 mph - N/A   Clear
6:15 PM 71.6 °F 60.8 °F 69% 29.94 in 10.0 mi NW 3.5 mph - N/A Thunderstorm Clear
6:35 PM 69.8 °F 60.8 °F 73% 29.93 in 10.0 mi NW 4.6 mph - N/A Thunderstorm Clear
6:55 PM 71.6 °F 60.8 °F 69% 29.94 in 10.0 mi Calm Calm - N/A   Clear
7:15 PM 69.8 °F 62.6 °F 78% 29.94 in 10.0 mi Calm Calm - N/A Thunderstorm Scattered Clouds
7:35 PM 69.8 °F 60.8 °F 73% 29.95 in 10.0 mi Calm Calm - N/A   Mostly Cloudy
7:55 PM 69.8 °F 60.8 °F 73% 29.95 in 10.0 mi North 3.5 mph - N/A   Overcast
8:15 PM 68.0 °F 60.8 °F 78% 29.96 in 10.0 mi Calm Calm - N/A   Scattered Clouds
8:35 PM 68.0 °F 60.8 °F 78% 29.96 in 10.0 mi Calm Calm - N/A   Scattered Clouds
8:55 PM 68.0 °F 60.8 °F 78% 29.96 in 10.0 mi North 3.5 mph - N/A   Clear
9:15 PM 68.0 °F 60.8 °F 78% 29.97 in 10.0 mi Calm Calm - N/A   Mostly Cloudy
9:35 PM 68.0 °F 60.8 °F 78% 29.97 in 10.0 mi Calm Calm - N/A   Scattered Clouds
9:55 PM 66.2 °F 59.0 °F 78% 29.96 in 10.0 mi Calm Calm - N/A   Scattered Clouds
10:15 PM 66.2 °F 59.0 °F 78% 29.96 in 10.0 mi Calm Calm - N/A   Scattered Clouds
10:35 PM 64.4 °F 59.0 °F 83% 29.96 in 10.0 mi Calm Calm - N/A   Scattered Clouds
10:55 PM 64.4 °F 59.0 °F 83% 29.96 in 10.0 mi ENE 3.5 mph - N/A   Mostly Cloudy
11:15 PM 64.4 °F 60.8 °F 88% 29.97 in 10.0 mi Calm Calm - N/A   Mostly Cloudy
11:35 PM 64.4 °F 60.8 °F 88% 29.96 in 10.0 mi East 3.5 mph - N/A   Mostly Cloudy
11:55 PM 64.4 °F 60.8 °F 88% 29.97 in 10.0 mi East 3.5 mph - N/A   Mostly Cloudy